Simultaneous Nadir Overpasses (SNOs) Predictions

Prediction of SNOs between GOES-15 and METOP-B Satellite Orbit:

Table of predicted SNOs for the next 14.0 days since TLE Epoch: 12/4/2021
Index Date Time (GOES-15) GOES-15 Lat,Lon METOP-B Lat,Lon Distance(km) Time Diff (sec)
1 12/04/2021 17:51:34 -0.21,-128.11 -0.76,-125.63 282.69 80
2 12/06/2021 06:13:13 0.19,-128.04 -0.29,-130.22 247.81 80
3 12/07/2021 05:49:54 0.20,-128.01 0.83,-125.22 317.94 80
4 12/08/2021 18:11:25 -0.18,-127.99 0.21,-129.78 204.08 80
5 12/09/2021 17:48:06 -0.19,-127.96 -0.92,-124.79 361.72 80
6 12/11/2021 06:09:44 0.17,-127.89 -0.19,-129.36 168.94 80
7 12/12/2021 05:46:25 0.18,-127.86 0.94,-124.37 396.79 80
8 12/13/2021 18:07:56 -0.16,-127.83 0.10,-128.93 125.34 80
9 12/14/2021 17:44:36 -0.17,-127.80 -1.03,-123.94 440.20 80
10 12/16/2021 06:06:16 0.16,-127.73 -0.01,-128.53 91.00 80
11 12/17/2021 05:42:56 0.16,-127.69 1.11,-123.53 474.12 80
